Regional Weather Roundup
Issued by NWS Sioux Falls, SD

Home | Current Version | Previous Version | Graphics & Text | Print | Product List | Glossary Off
Versions: 1 2 3 4 5 6 7 8 9 10 11 12 13 14 15 16 17 18 19 20 21 22 23 24 25 26 27 28 29 30 31 32 33 34 35 36 37 38 39 40 41 42 43 44 45 46 47 48 49 50

000
ASUS43 KFSD 250202
RWRFSD

WEATHER ROUNDUP FOR SE SOUTH DAKOTA/SW MINNESOTA/NW IOWA
NATIONAL WEATHER SERVICE SIOUX FALLS SD
900 PM CDT MON JUL 24 2017

NOTE: "FAIR" INDICATES FEW OR NO CLOUDS BELOW 12,000 FEET WITH NO
SIGNIFICANT WEATHER AND OR OBSTRUCTIONS TO VISIBILITY.


SDZ038>040-050-052>070-250300-
SOUTHEAST SOUTH DAKOTA

CITY           SKY/WX    TMP DP  RH WIND       PRES   REMARKS
BROOKINGS      CLOUDY    74  65  73 SE16      29.92F
CHAMBERLAIN    CLOUDY    85  62  44 SE10      29.78R
HURON          CLEAR     79  66  64 SE17G24   29.82R
MADISON        FAIR      73  66  78 SE18      29.91R
MITCHELL       MOCLDY    82  67  60 SE18G25   29.84R
SIOUX FALLS    MOCLDY    78  66  66 SE13G23   29.92S
WINNER         FAIR      81  69  67 S24G36    29.80S
YANKTON        CLOUDY    80  66  62 SE14      29.89R
$$

MNZ071-072-080-081-089-090-097-098-250300-
SOUTHWEST MINNESOTA

CITY           SKY/WX    TMP DP  RH WIND       PRES   REMARKS
FAIRMONT       CLEAR     69  64  84 SE8       30.01S
JACKSON        CLEAR     70  63  78 CALM      30.01S
LUVERNE        CLEAR     73  61  64 SE8       29.96R
MARSHALL       PTCLDY    73  65  75 SE16      29.94F
MONTEVIDEO     PTCLDY    73  63  68 SE8       29.97R
PIPESTONE      CLEAR     75  64  69 SE8       29.96R
REDWOOD FALLS  MOCLDY    71  62  73 SE12      29.97S
TRACY          PTCLDY    73  65  78 SE10      29.96F
WINDOM         CLEAR     72  63  73 SE9       29.99F
WORTHINGTON    CLEAR     71  64  78 SE7       29.98F
$$

IAZ001>003-012>014-020>022-031-032-NEZ013-014-SDZ071-250300-
NORTHWEST IOWA

CITY           SKY/WX    TMP DP  RH WIND       PRES   REMARKS
CHEROKEE       CLEAR     74  64  70 SE8       29.97S
DENISON        CLEAR     73  66  78 SE3       30.00R
ESTHERVILLE    CLEAR     69  65  86 SE6       30.00R
ORANGE CITY    CLEAR     75  66  73 SE5       29.96R
SHELDON        CLEAR     73  64  73 SE7       29.95S
SIOUX CITY     CLEAR     78  66  66 SE13      29.93S
SPENCER        CLEAR     74  63  68 SE7       29.99R
STORM LAKE     CLEAR     73  64  73 SE7       29.99F
$$

ABBREVIATIONS USED IN REMARKS
   TC - TEMPERATURE IN CELSIUS
  WCI - WIND CHILL INDEX
   HX - HEAT INDEX
  VSB - VISIBILITY





USA.gov is the U.S. government's official web portal to all federal, state and local government web resources and services.